Home   Weather   Chattanooga   Past weeks
Flag for USA

Past Weather in Chattanooga, Tennessee, USA — Yesterday and Last 2 Weeks

Now
80 °F

Passing clouds.


Feels Like: 79 °F
Forecast: 80 / 55 °F
Wind: 5 mph from West

Location: Lovell Field

Current Time: Apr 5, 2020 at 4:11:54 pm

Latest Report: Apr 5, 2020 at 2:53 pm


Visibility: 10 mi

Pressure: 29.99 "Hg

Humidity: 27%

Dew Point: 43 °F

Location of ChattanoogaLocation

Past Weather in Chattanooga — Graph

°F

Chattanooga Temperature Yesterday

Maximum temperature yesterday: 79 °F (at 4:53 pm)
Minimum temperature yesterday: 57 °F (at 1:53 am)
Average temperature yesterday: 66 °F

High & Low Weather Summary for the Past Weeks

 TemperatureHumidityPressure
High87 °F (Mar 27, 5:53 pm)100% (Mar 24, 9:53 am)30.39 "Hg (Mar 24, 9:53 am)
Low36 °F (Apr 2, 5:53 am)21% (Mar 29, 5:53 pm)29.70 "Hg (Mar 31, 1:53 pm)
Average61 °F71%30.00 "Hg
* Reported Mar 21 2:31 pm — Apr 5 2:53 pm, Chattanooga. Weather by CustomWeather, © 2020

Note: Actual official high and low records may vary slightly from our data, if they occured in-between our weather recording intervals... More about our weather records

Chattanooga Weather History for the Previous 24 Hours

Scroll right to see more
 ConditionsComfort  
Time TempWeatherWind HumidityBarometerVisibility
2:53 pm
Sun, Apr 5
80 °FPassing clouds.5 mph27%29.99 "Hg10 mi
1:53 pm80 °FPassing clouds.No wind25%30.02 "Hg10 mi
12:53 pm76 °FPassing clouds.3 mph31%30.03 "Hg10 mi
11:53 am74 °FPassing clouds.No wind33%30.05 "Hg10 mi
10:53 am70 °FPassing clouds.5 mph46%30.05 "Hg10 mi
9:53 am65 °FPassing clouds.No wind63%30.04 "Hg10 mi
8:53 am58 °FPartly sunny.No wind84%30.03 "Hg10 mi
7:53 am53 °FScattered clouds.No wind89%30.01 "Hg10 mi
6:53 am53 °FPassing clouds.No wind89%29.97 "Hg10 mi
5:53 am54 °FPassing clouds.No wind90%29.96 "Hg10 mi
4:53 am56 °FClear.No wind87%29.93 "Hg10 mi
3:53 am58 °FClear.No wind78%29.94 "Hg10 mi
2:53 am59 °FClear.No wind72%29.95 "Hg10 mi
1:53 am59 °FClear.No wind78%29.96 "Hg10 mi
12:53 am59 °FClear.No wind78%29.96 "Hg10 mi
11:53 pm
Sat, Apr 4
61 °FPartly cloudy.No wind70%29.97 "Hg10 mi
10:53 pm62 °FPartly cloudy.No wind67%29.96 "Hg10 mi
9:53 pm65 °FPartly cloudy.No wind56%29.94 "Hg10 mi
8:53 pm67 °FPartly cloudy.No wind55%29.93 "Hg10 mi
7:53 pm72 °FBroken clouds.No wind41%29.92 "Hg10 mi
6:53 pm76 °FBroken clouds.5 mph29%29.91 "Hg10 mi
5:53 pm78 °FBroken clouds.No wind25%29.90 "Hg10 mi
4:53 pm79 °FScattered clouds.6 mph27%29.90 "Hg10 mi
Weather by CustomWeather, © 2020

See weather overview

Advertising